Location: Gaast
(52.9002°N, 5.8891°E)
Time: 10:31:53
(UTC+00:00)

Cosmos 2026 Rocket - Pass Details

Date: 18 November 2025
Orbit: 938 x 1000 km, 82.9° (Epoch: 11 December)

Event Time Altitude Azimuth Distance (km) Brightness Sun altitude
Rises 18:11:50 0° 349° (N) 3,615 7.1 -22.9°
Reaches altitude 10° 18:14:20 10° 350° (N) 2,670 6.4 -23.2°
Maximum altitude 18:20:27 85° 79° (E) 960 3.8 -24.2°
Drops below altitude 10° 18:26:35 10° 169° (S) 2,683 6.2 -25.1°
Sets 18:29:05 0° 170° (S) 3,633 6.9 -25.5°
